Weather History for Alexandria, LA

Change the Weather History Date:

Monday, December 6, 2010

  Actual Average Record
Temperature  
Mean Temperature 39 °F 51 °F  
Max Temperature 50 °F 62 °F 83 °F (1906)
Min Temperature 27 °F 41 °F 22 °F (1895)
Degree Days  
Heating Degree Days 26 14  
Month to date heating degree days 97 81  
Since 1 July heating degree days 388 406  
Moisture  
Dew Point 24 °F    
Average Humidity 61    
Maximum Humidity 92    
Minimum Humidity 29    
Precipitation  
Precipitation 0.00 in 0.25 in 5.58 in (1971)
Month to date precipitation 0.00 1.55  
Year to date precipitation 35.66 51.35  
Snow  
Snow 0.00 in - 0.00 in ()
Month to date snowfall 0.0  
Since 1 July snowfall 0.0  
Snow Depth 0.00 in    
Sea Level Pressure  
Sea Level Pressure 30.42 in    
Wind  
Wind Speed 4 mph (NW)    
Max Wind Speed 14 mph    
Max Gust Speed 17 mph    
Visibility 10 miles    
Events      
T = Trace of Precipitation, MM = Missing Value Source: NWS Daily Summary

Daily Weather History Graph

Daily Weather History Graph

Search for Another Location

Airport:

Trip Planner

Search our weather history database for the weather conditions in past years. The results will help you decide how hot, cold, wet, or windy it might be!

Date:

Astronomy

Dec. 06, 2010 Rise Set
Actual Time 6:55 AM CST 5:07 PM CST
Civil Twilight 6:28 AM CST 5:33 PM CST
Nautical Twilight 5:58 AM CST 6:03 PM CST
Astronomical Twilight 5:29 AM CST 6:33 PM CST
Moon 7:50 AM CST (12/6) 6:06 PM CST (12/6)
Length of Visible Light 11h 04m
Length of Day
10h 11m
New Moon, 1% of the Moon is Illuminated
Dec 6
New Moon
Dec 13
First Quarter
Dec 21
Full
Dec 27
Last Quarter
Jan 4
New

Hourly Weather History & Observations

Time (CST) Temp. Windchill Dew Point Humidity Pressure Visibility Wind Dir Wind Speed Gust Speed Precip Events Conditions
12:53 AM 30.0 °F - 27.0 °F 88% 30.46 in 10.0 mi Calm Calm - N/A   Clear
1:53 AM 30.9 °F - 28.0 °F 89% 30.46 in 10.0 mi Calm Calm - N/A   Clear
2:53 AM 28.9 °F - 26.1 °F 89% 30.45 in 10.0 mi Calm Calm - N/A   Clear
3:53 AM 30.0 °F 26.5 °F 26.1 °F 85% 30.46 in 10.0 mi NNW 3.5 mph - N/A   Clear
4:53 AM 30.0 °F - 26.1 °F 85% 30.45 in 10.0 mi Calm Calm - N/A   Clear
5:53 AM 30.0 °F - 26.1 °F 85% 30.48 in 10.0 mi Calm Calm - N/A   Clear
6:53 AM 27.0 °F 21.6 °F 24.1 °F 89% 30.49 in 9.0 mi NNW 4.6 mph - N/A   Clear
7:53 AM 30.9 °F 25.2 °F 27.0 °F 85% 30.50 in 10.0 mi NNW 5.8 mph - N/A   Clear
8:53 AM 36.0 °F 31.1 °F 26.1 °F 67% 30.51 in 10.0 mi North 5.8 mph - N/A   Clear
9:53 AM 39.0 °F 36.8 °F 26.1 °F 60% 30.52 in 10.0 mi Variable 3.5 mph - N/A   Clear
10:53 AM 42.1 °F 38.4 °F 21.9 °F 45% 30.49 in 10.0 mi North 5.8 mph - N/A   Clear
11:53 AM 45.0 °F 41.8 °F 21.9 °F 40% 30.45 in 10.0 mi West 5.8 mph - N/A   Clear
12:53 PM 46.9 °F - 19.9 °F 34% 30.41 in 10.0 mi NW 11.5 mph 16.1 mph N/A   Clear
1:53 PM 48.0 °F - 21.0 °F 34% 30.38 in 10.0 mi WNW 9.2 mph - N/A   Clear
2:53 PM 50.0 °F - 19.9 °F 31% 30.37 in 10.0 mi NW 10.4 mph 17.3 mph N/A   Clear
3:53 PM 48.9 °F - 21.9 °F 35% 30.35 in 10.0 mi NW 9.2 mph - N/A   Clear
4:53 PM 45.0 °F 41.2 °F 21.9 °F 40% 30.35 in 10.0 mi NNW 6.9 mph - N/A   Clear
5:53 PM 39.9 °F 36.7 °F 23.0 °F 51% 30.35 in 10.0 mi NW 4.6 mph - N/A   Clear
6:53 PM 37.9 °F - 24.1 °F 57% 30.35 in 10.0 mi Calm Calm - N/A   Clear
7:53 PM 35.1 °F - 27.0 °F 72% 30.35 in 10.0 mi Calm Calm - N/A   Clear
8:53 PM 33.1 °F - 24.1 °F 70% 30.35 in 10.0 mi Calm Calm - N/A   Clear
9:53 PM 33.1 °F - 25.0 °F 72% 30.33 in 10.0 mi Calm Calm - N/A   Clear
10:53 PM 30.9 °F - 25.0 °F 79% 30.33 in 10.0 mi Calm Calm - N/A   Clear
11:53 PM 30.0 °F - 24.1 °F 79% 30.32 in 10.0 mi Calm Calm - N/A   Clear